Regional Weather Roundup
Issued by NWS

Home | Current Version | Previous Version | Graphics & Text | Print | Product List | Glossary On
Versions: 1 2 3 4 5 6 7 8 9 10 11 12 13 14 15 16 17 18 19 20 21 22 23 24 25 26 27 28 29 30 31 32 33 34 35 36 37 38 39 40 41 42 43 44 45 46 47 48 49 50
000
ASUS43 KLMK 180602
RWRKY
KENTUCKY REGIONAL WEATHER ROUNDUP
NATIONAL WEATHER SERVICE LOUISVILLE KY
200 AM EDT SAT APR 18 2015

NOTE "FAIR" INDICATES FEW OR NO CLOUDS BELOW 12,000 FEET
WITH NO SIGNIFICANT WEATHER AND/OR OBSTRUCTIONS TO VISIBILITY.

KYZ001>023-026-027-061>063-070>075-180700-
WESTERN AND SOUTH CENTRAL KENTUCKY

CITY           SKY/WX    TMP DP  RH WIND       PRES   REMARKS
PADUCAH        FAIR      60  58  92 CALM      30.01F FOG
HENDERSON      FAIR      57  54  88 CALM      30.03F
OWENSBORO      NOT AVBL
HOPKINSVILLE   FAIR      59  58  97 NE1       30.02F FOG
BOWLING GREEN  FAIR      58  55  90 CALM      30.04S FOG
GLASGOW        NOT AVBL
$$

KYZ024-025-028>034-038-045-046-053-180700-
NORTH CENTRAL KENTUCKY

CITY           SKY/WX    TMP DP  RH WIND       PRES   REMARKS
LOUISVILLE/SDF NOT AVBL
LOUISVILLE/LOU FAIR      59  56  89 CALM      30.06R
FORT KNOX      FAIR      57  56  94 CALM      30.04R
$$

KYZ035>037-039>044-047>052-055>060-089>105-180700-
NORTHEAST KENTUCKY

CITY           SKY/WX    TMP DP  RH WIND       PRES   REMARKS
LEXINGTON      FAIR      57  56  96 CALM      30.04R
COVINGTON      FAIR      62  43  49 CALM      30.04R
FRANKFORT      FAIR      55  52  89 CALM      30.03R
$$

KYZ054-064>069-076>088-106>120-180700-
SOUTHEAST KENTUCKY

CITY           SKY/WX    TMP DP  RH WIND       PRES   REMARKS
JACKSON        FAIR      62  55  77 NE3       30.03F
LONDON         FAIR      58  52  80 CALM      30.04R
SOMERSET       NOT AVBL
MIDDLESBORO    NOT AVBL
MONTICELLO     NOT AVBL
$$



USA.gov is the U.S. government's official web portal to all federal, state and local government web resources and services.